Theta_e
330 331 333 339 340 339 343 342 340 340 339 338 335 333 332 332 326 318 318 321 322 321 320 319 318 317 317 319 319 318 319 319
324 326 332 338 339 341 343 342 341 339 336 334 330 325 316 313 313 312 312 312 313 313 313 313 314 317 322 321 320 322 321 318
318 319 324 332 336 340 341 340 338 335 329 321 318 313 311 311 311 310 311 311 312 312 312 312 314 317 319 321 322 319 317 315
316 314 319 324 327 328 328 327 326 319 315 313 311 310 309 308 308 308 308 308 309 312 313 313 315 317 318 316 315 315 316 314
315 313 313 316 315 315 315 314 312 310 308 307 307 307 308 308 308 308 309 310 310 311 311 310 308 310 310 310 307 308 313 314
314 311 312 314 314 313 311 309 308 307 307 306 305 305 307 307 307 308 309 309 309 308 307 305 305 306 302 301 300 301 303 309
311 311 312 312 312 309 308 307 306 305 305 305 304 304 305 306 308 309 307 305 305 305 304 304 303 302 301 300 300 300 300 300
312 310 309 307 307 307 306 306 305 305 304 303 303 303 304 308 306 304 304 304 305 304 303 302 301 301 300 300 300 300 300 300
311 309 307 306 306 305 305 305 304 304 303 302 303 304 303 303 302 302 303 303 303 303 303 303 302 302 301 301 301 300 300 300
311 308 305 305 305 305 305 303 303 303 302 302 301 300 300 300 300 300 300 300 299 299 300 300 300 301 301 302 302 301 301 301
310 306 304 304 305 305 303 303 302 301 301 300 299 299 299 299 299 299 299 299 299 299 299 299 299 300 300 300 300 300 300 300
308 305 303 303 303 302 301 300 300 299 299 299 299 299 299 299 300 300 300 300 299 299 299 299 299 299 299 300 301 301 301 300
305 302 300 301 301 300 299 298 299 299 299 299 299 299 299 299 299 299 298 298 297 297 297 297 296 296 297 298 299 299 301 301
301 299 299 298 298 298 298 299 299 300 299 299 299 299 299 298 298 297 297 296 296 297 297 296 295 296 298 299 299 300 300 300
301 299 297 296 296 297 299 299 299 299 299 299 298 298 297 297 296 295 295 295 295 295 295 295 295 296 296 298 298 298 298 298
299 297 295 296 297 298 299 299 299 298 298 297 297 296 295 294 294 294 294 293 294 294 294 295 295 295 295 296 296 296 296 295
297 296 296 297 297 298 298 298 297 297 297 296 295 294 293 294 294 293 293 292 293 293 293 294 293 293 293 294 294 294 294 294
296 297 297 297 297 298 297 297 297 296 295 294 293 293 293 293 292 292 292 292 292 292 293 293 293 293 293 293 293 293 293 293
297 297 297 297 297 297 296 296 295 294 293 293 293 293 293 292 292 292 292 292 292 291 293 293 293 293 292 291 290 290 290 291
Wind_Speed
8 11 12 13 16 19 26 24 20 19 19 18 18 17 16 15 16 16 15 13 12 11 12 13 14 15 16 15 14 15 17 20
9 11 13 14 15 20 27 28 23 21 23 21 19 17 19 17 14 14 13 13 13 13 13 14 13 13 12 12 13 13 16 21
7 13 16 17 21 24 27 27 25 22 21 19 19 17 15 14 12 13 14 13 13 15 16 17 15 12 11 12 12 13 12 17
8 9 18 24 26 28 29 27 26 23 21 22 19 14 11 10 12 13 13 12 11 11 12 13 13 13 12 12 14 15 11 14
10 11 17 27 27 29 30 29 26 23 19 18 14 13 10 9 10 10 10 11 12 11 12 13 13 12 13 14 14 13 13 13
13 12 23 29 29 30 30 29 26 22 18 14 14 14 12 9 7 8 8 9 9 10 11 12 12 9 10 11 13 14 14 13
13 21 27 28 29 30 30 28 24 19 17 15 14 12 8 6 5 6 6 6 6 5 5 4 6 8 10 11 11 12 13 14
16 15 18 24 30 30 28 26 23 19 17 15 12 10 8 6 5 2 3 4 2 5 7 8 12 12 11 12 11 12 13 15
17 15 20 24 30 28 26 25 23 19 16 14 11 10 8 6 3 2 2 4 6 9 11 13 15 16 17 17 18 18 19 19
20 18 23 27 32 28 26 23 21 18 16 15 13 9 6 3 2 3 4 7 9 10 12 14 16 18 20 22 24 25 26 27
15 14 22 29 32 28 24 22 21 18 16 13 10 8 6 3 2 5 7 9 11 13 14 16 17 18 19 20 22 24 27 29
16 14 22 31 28 26 24 21 19 16 14 12 10 7 4 3 5 7 7 8 11 13 14 15 15 17 19 20 22 24 25 27
15 15 21 25 27 25 23 20 20 17 14 12 9 6 5 5 6 7 9 13 15 15 14 16 19 20 20 21 24 25 25 26
13 11 14 19 24 23 22 22 19 17 13 10 9 6 4 6 7 11 14 16 16 13 17 21 20 20 20 20 20 22 23 22
15 11 11 20 26 27 24 21 16 14 12 8 6 5 5 7 10 13 15 15 16 17 17 18 18 19 19 19 21 23 23 24
15 12 12 20 25 26 22 19 16 13 10 9 6 3 5 8 11 13 13 15 14 15 16 15 15 18 20 20 20 23 26 31
14 14 15 19 22 25 22 19 16 13 11 8 4 5 8 11 13 14 13 15 13 13 14 13 17 20 20 19 20 24 25 27
19 19 17 20 23 27 24 20 18 12 8 5 5 8 11 13 13 13 13 14 12 11 11 16 18 19 20 24 26 25 27 27
17 16 20 22 24 24 22 19 14 9 7 7 7 7 7 9 9 9 9 10 11 11 16 17 19 22 23 26 24 25 24 23
Wind_Direction
175 172 173 178 185 184 183 174 165 157 144 136 122 112 102 98 85 72 63 58 50 39 33 22 11 5 7 6 4 354 341 333
169 168 161 161 156 163 167 164 161 156 137 130 123 112 100 87 77 64 57 51 45 34 26 20 15 11 6 0 358 353 352 350
168 165 160 153 149 152 153 149 146 142 139 129 125 116 96 76 62 46 37 30 22 15 8 9 6 2 2 3 9 1 346 354
168 161 147 142 142 142 137 133 133 132 128 126 121 115 102 73 54 45 39 29 21 24 22 19 13 10 13 9 354 349 334 335
164 162 152 144 137 134 132 131 128 123 123 120 112 96 92 67 61 52 44 39 36 30 24 17 11 4 358 3 358 347 331 318
167 167 160 149 145 140 134 128 125 122 114 104 97 87 77 64 44 30 35 35 25 10 6 1 354 5 13 1 353 349 345 329
163 168 160 154 150 143 138 133 125 122 114 104 95 90 86 69 50 57 41 20 3 353 353 3 357 342 337 337 339 340 334 326
167 166 162 156 154 148 143 137 131 128 120 110 103 99 95 99 101 55 360 354 315 334 331 323 333 323 312 311 306 313 311 311
171 168 161 160 157 152 147 143 136 133 125 118 117 114 113 114 95 39 327 321 319 321 313 307 310 306 300 299 300 300 303 302
172 167 163 160 159 157 153 146 141 138 131 124 121 119 115 97 53 13 354 339 333 327 319 314 311 309 309 307 303 299 297 295
165 163 158 161 161 156 154 148 140 135 131 128 127 123 114 95 27 3 351 341 330 324 321 322 322 321 319 314 308 302 298 299
161 160 161 161 159 155 147 143 139 136 135 133 136 126 105 66 30 18 8 359 354 352 350 347 340 335 333 328 321 318 313 308
156 155 152 155 156 153 148 144 140 138 142 144 129 114 80 42 35 12 359 349 342 338 333 332 330 328 324 323 320 316 313 308
149 151 154 150 153 151 148 145 142 146 143 131 113 85 61 36 7 350 340 335 336 337 332 336 334 331 327 321 318 320 316 313
159 154 148 150 155 152 148 145 145 140 133 119 105 79 31 2 345 340 339 340 338 337 339 340 338 334 328 329 325 319 315 316
162 153 149 152 152 151 147 144 145 141 133 133 113 69 4 345 347 351 348 342 344 345 343 340 339 338 337 331 325 324 319 315
155 153 155 156 150 150 150 148 143 149 143 123 87 16 7 7 2 358 350 346 343 342 341 340 343 345 343 338 330 322 319 316
163 163 158 151 153 155 152 149 146 140 124 96 57 31 27 14 1 354 349 345 340 339 352 352 347 339 339 334 330 322 314 308
162 155 148 144 148 151 147 146 141 126 109 75 48 36 24 6 356 346 336 338 344 335 342 342 338 336 333 335 335 328 319 311